EHI
0 0 0 0 0 0 0 0 0 0 0 0 0 0 0 0 0 0 0 0 0 0 0 0 0 0 0 0 0 0 0 0 0 0 0 0 0 0 0 0 0 0 0
0 0 0 0 0 0 0 0 0 0 0 0 0 0 0 0 0 0 0 0 0 0 0 0 0 0 0 0 0 0 0 0 0 0 0 0 0 0 0 0 0 0 0
0 0 0 0 0 0 0 0 0 0 0 0 0 0 0 0 0 0 0 0 0 0 0 0 0 0 0 0 0 0 0 0 0 0 0 0 0 0 0 0 0 0 0
0 0 0 0 0 0 0 0 0 0 0 0 0 0 0 0 0 0 0 0 0 0 0 0 0 0 0 0 0 0 0 0 0 0 0 0 0 0 0 0 0 0 0
0 0 0 0 0 0 0 0 0 0 0 0 0 0 0 0 0 0 0 0 0 0 0 0 0 0 0 0 0 0 0 0 0 0 0 0 0 0 0 0 0 0 0
0 0 0 0 0 0 0 0 0 0 0 0 0 0 0 0 0 0 0 0 0 0 0 0 0 0 0 0 0 0 0 0 0 0 0 0 0 0 0 0 0 0 0
0 0 0 0 0 0 0 0 0 0 0 0 0 0 0 0 0 0 0 0 0 0 0 0 0 0 0 0 0 0 0 0 0 0 0 0 0 0 0 0 0 0 0
0 0 0 0 0 0 0 0 0 0 0 0 0 0 0 0 0 0 0 0 0 0 0 0 0 0 0 0 0 0 0 0 0 0 0 0 0 0 0 0 0 0 0
0 0 0 0 0 0 0 0 0 0 0 0 0 0 0 0 0 0 0 0 0 0 0 0 0 0 0 0 0 0 0 0 0 0 0 0 0 0 0 0 0 0 0
0 0 0 0 0 0 0 0 0 0 0 0 0 0 0 0 0 0 0 0 0 0 0 0 0 0 0 0 0 0 0 0 0 0 0 0 0 0 0 0 0 0 0
0 0 0 0 0 0 0 0 0 0 0 0 0 0 0 0 0 0 0 0 0 0 0 0 0 0 0 0 0 0 0 0 0 0 0 0 0 0 0 0 0 0 0
0 0 0 0 0 0 0 0 0 0 0 0 0 0 0 0 0 0 0 0 0 0 0 0 0 0 0 0 0 0 0 0 0 0 0 0 0 0 0 0 0 0 0
0 0 0 0 0 0 0 0 0 0 0 0 0 0 0 0 0 0 0 0 0 0 0 0 0 0 0 0 0 0 0 0 0 0 0 0 0 0 0 0 0 0 0
0 0 0 0 0 0 0 0 0 0 0 0 0 0 0 0 0 0 0 0 0 0 0 0 0 0 0 0 0 0 0 0 0 0 0 0 0 0 0 0 0 0 0
0 0 0 0 0 0 0 0 0 0 0 0 0 0 0 0 0 0 0 0 0 0 0 0 0 0 0 0 0 0 0 0 0 0 0 0 0 0 0 0 0 0 0
0 0 0 0 0 0 0 0 0 0 0 0 0 0 0 0 0 0 0 0 0 0 0 0 0 0 0 0 0 0 0 0 0 0 0 0 0 0 0 0 0 0 0
0 0 0 0 0 0 0 0 0 0 0 0 0 0 0 0 0 0 0 0 0 0 0 0 0 0 0 0 0 0 0 0 0 0 0 0 0 0 0 0 0 0 0
0 0 0 0 0 0 0 0 0 0 0 0 0 0 0 0 0 0 0 0 0 0 0 0 0 0 0 0 0 0 0 0 0 0 0 0 0 0 0 0 0 0 0
0 0 0 0 0 0 0 0 0 0 0 0 0 0 0 0 0 0 0 0 0 0 0 0 0 0 0 0 0 0 0 0 0 0 0 0 0 0 0 0 0 0 0
0 0 0 0 0 0 0 0 0 0 0 0 0 0 0 0 0 0 0 0 0 0 0 0 0 0 0 0 0 0 0 0 0 0 0 0 0 0 0 0 0 0 0
0 0 0 0 0 0 0 0 0 0 0 0 0 0 0 0 0 0 0 0 0 0 0 0 0 0 0 0 0 0 0 0 0 0 0 0 0 0 0 0 0 0 0
0 0 0 0 0 0 0 0 0 0 0 0 0 0 0 0 0 0 0 0 0 0 0 0 0 0 0 0 0 0 0 0 0 0 0 0 0 0 0 0 0 0 0
0 0 0 0 0 0 0 0 0 0 0 0 0 0 0 0 0 0 0 0 0 0 0 0 0 0 0 0 0 0 0 0 0 0 0 0 0 0 0 0 0 0 0
0 0 0 0 0 0 0 0 0 0 0 0 0 0 0 0 0 0 0 0 0 0 0 0 0 0 0 0 0 0 0 0 0 0 0 0 0 0 0 0 0 0 0
0 0 0 0 0 0 0 0 0 0 0 0 0 0 0 0 0 0 0 0 0 0 0 0 0 0 0 0 0 0 0 0 0 0 0 0 0 0 0 0 0 0 0
0 0 0 0 0 0 0 0 0 0 0 0 0 0 0 0 0 0 0 0 0 0 0 0 0 0 0 0 0 0 0 0 0 0 0 0 0 0 0 0 0 0 0
Wind_Speed
13 12 12 11 11 10 10 9 8 7 6 6 5 5 6 6 5 4 4 4 5 4 4 4 4 3 4 4 4 4 3 3 4 4 4 4 3 3 4 3 5 5 6
11 11 10 10 9 9 8 7 6 5 5 5 5 5 5 5 4 5 5 5 4 4 4 5 5 4 4 4 4 4 3 3 3 5 5 5 5 4 4 5 6 7 5
10 10 9 9 8 8 7 5 5 5 5 4 4 5 5 6 7 7 6 5 5 4 4 4 4 4 4 4 5 5 4 5 4 4 6 5 4 5 4 5 6 5 7
9 9 9 8 7 6 5 5 4 4 4 4 4 5 6 8 8 9 9 6 5 4 4 3 4 4 4 5 5 5 5 5 5 5 5 5 4 4 3 4 5 4 5
8 9 8 7 6 5 4 4 3 4 5 4 4 5 5 6 8 9 9 8 7 6 5 4 4 3 2 3 5 5 6 5 6 6 6 6 4 5 4 4 5 5 5
7 8 7 6 5 5 4 4 4 4 4 4 4 5 6 6 6 9 9 8 8 6 5 5 5 1 2 5 7 9 8 7 7 7 7 7 7 6 5 5 5 5 5
6 6 5 5 4 4 4 4 4 3 3 3 3 4 6 5 6 8 11 8 8 5 4 4 6 5 4 6 8 10 9 11 11 8 8 8 8 6 6 6 6 6 6
5 5 5 5 4 4 4 3 3 3 2 2 3 3 4 4 4 8 13 8 6 5 5 4 4 3 6 7 8 9 8 7 7 6 7 8 8 5 5 6 7 7 7
5 4 5 4 4 4 4 3 3 2 2 2 2 3 4 4 3 7 10 7 5 6 6 5 5 4 5 8 8 8 9 7 8 9 9 10 12 12 8 4 6 5 6
4 5 4 4 3 3 4 3 2 2 2 3 3 3 4 4 1 5 9 6 6 6 5 3 4 4 7 8 7 8 9 8 9 10 9 8 8 9 9 6 5 5 5
4 4 4 3 1 2 2 2 2 3 2 2 2 2 3 3 2 2 5 5 6 7 6 5 3 5 10 11 9 7 9 9 9 9 7 6 5 4 4 4 5 4 4
4 3 2 2 3 3 2 2 2 3 3 2 2 2 2 3 2 1 5 6 6 6 6 6 7 12 14 14 10 9 11 10 6 6 5 5 5 4 3 3 3 3 4
3 2 1 2 2 2 3 2 2 3 3 3 3 3 3 2 2 3 6 9 9 5 5 10 13 15 13 9 9 11 9 5 5 5 5 5 4 4 4 3 3 3 4
2 0 0 0 1 1 2 3 4 5 5 5 4 4 4 4 6 6 7 7 9 7 8 11 13 11 8 8 8 7 5 4 4 4 5 4 4 3 3 2 2 3 3
0 1 1 1 1 2 3 4 5 5 4 4 5 5 5 5 5 6 6 7 7 7 9 7 5 5 4 4 4 4 4 4 4 4 4 4 4 3 3 2 2 2 2
1 2 1 1 0 1 3 5 6 5 4 3 3 3 2 3 7 10 10 12 13 11 7 6 5 5 5 5 4 4 4 4 4 4 4 4 4 4 3 3 2 2 3
1 2 2 2 2 1 2 3 3 3 2 1 2 4 5 8 10 11 12 14 15 11 4 4 4 4 5 5 4 4 4 4 4 4 4 4 4 4 4 3 3 2 2
1 0 2 1 1 2 2 1 1 2 3 3 4 7 8 9 11 13 12 11 7 3 3 4 5 5 5 5 5 5 5 5 5 5 5 5 5 4 4 4 3 3 2
1 1 1 1 1 1 1 1 2 3 2 2 2 3 6 9 11 11 9 5 5 5 5 5 5 5 5 5 5 5 5 5 6 6 5 5 5 4 4 4 3 3 3
1 1 2 2 1 1 2 2 2 2 2 2 2 3 2 3 2 3 2 4 5 5 6 6 6 6 6 6 6 6 6 6 7 7 7 6 6 5 5 5 5 4 3
3 4 3 3 1 3 3 3 3 3 3 2 3 3 3 4 3 4 4 4 4 5 5 6 6 6 7 7 7 9 9 8 8 9 9 9 7 5 5 5 4 4 4
1 3 3 2 3 4 3 3 3 3 3 3 1 1 1 3 3 4 4 4 5 4 5 5 7 7 7 8 8 8 9 9 9 9 10 10 8 6 5 5 5 4 4
3 1 3 3 4 3 1 2 3 2 2 2 3 3 3 3 3 4 4 4 4 4 4 4 5 7 8 7 7 8 8 8 9 10 10 10 9 7 5 5 6 5 5
1 2 3 4 3 3 3 3 2 2 2 2 3 3 3 2 3 4 4 3 3 4 4 4 5 9 11 8 7 8 8 8 9 9 12 11 9 7 6 6 5 6 5
0 3 4 4 4 4 3 3 2 1 2 2 2 3 3 3 4 4 4 4 4 4 6 5 5 8 11 13 12 11 11 11 9 9 10 9 8 7 8 8 6 5 5
3 4 3 4 4 3 3 2 2 1 2 2 3 3 3 4 4 4 4 4 4 4 4 4 8 11 12 10 12 12 12 13 14 13 10 7 6 6 8 6 9 7 6
Wind_Direction
75 75 77 77 77 78 78 77 78 77 76 75 71 69 65 57 46 39 45 41 36 26 18 19 12 1 1 343 343 343 347 354 329 320 329 329 325 310 302 292 288 278 272
80 79 79 80 80 80 80 80 80 77 75 75 69 64 61 55 38 29 24 30 26 23 15 8 1 2 359 351 350 342 342 328 319 315 314 309 310 301 282 275 284 286 286
88 87 85 84 83 83 83 83 83 81 74 68 62 59 52 44 33 19 14 18 16 11 8 360 351 0 2 359 338 337 335 336 325 310 304 301 294 288 291 292 294 292 293
91 89 87 86 84 83 82 80 79 84 81 68 58 54 56 46 32 16 360 359 359 353 350 343 345 6 8 349 329 339 335 326 313 303 294 294 292 304 315 312 307 298 297
98 96 94 94 93 90 84 75 62 54 63 58 57 57 61 58 31 15 352 349 346 341 342 341 342 344 1 305 319 331 324 320 317 311 311 312 320 333 327 316 309 309 297
100 101 102 102 103 105 98 79 66 54 45 43 42 54 56 52 31 12 356 338 327 330 339 338 326 298 301 280 288 290 286 293 302 305 304 310 314 320 319 313 312 316 310
98 102 107 104 96 88 81 69 54 47 43 39 34 63 82 67 20 359 349 325 311 318 326 327 332 359 8 352 331 310 291 278 264 266 282 292 301 308 315 316 313 309 297
104 101 101 94 88 81 73 60 48 36 24 23 32 63 99 82 19 355 341 319 311 325 329 327 333 7 31 358 329 319 312 307 290 268 261 274 286 299 308 300 296 296 290
95 91 84 73 70 69 64 48 35 13 5 358 34 59 89 102 24 355 346 319 339 345 346 1 359 23 20 348 326 318 318 317 319 319 290 278 279 280 274 286 292 299 305
87 79 69 55 49 51 47 25 4 345 349 1 34 53 74 92 69 352 348 341 351 343 346 3 30 2 341 334 323 314 312 319 326 318 306 292 280 273 262 240 259 284 299
88 81 71 43 17 70 52 7 342 352 8 3 18 56 82 95 138 317 340 342 346 335 337 338 352 339 324 316 306 286 290 308 307 301 301 302 300 289 273 244 234 246 278
88 79 66 27 0 58 39 9 3 349 350 14 29 50 86 113 80 329 309 310 308 316 325 335 335 325 316 309 302 292 303 307 293 295 303 307 310 308 298 281 256 249 251
85 68 50 48 23 15 357 8 8 4 9 11 21 23 34 51 58 347 323 314 313 306 322 325 317 311 310 305 306 310 308 294 295 304 308 310 311 311 309 305 300 287 277
79 59 229 223 14 47 15 24 39 29 17 8 19 13 15 39 29 5 347 341 347 348 343 323 314 312 310 304 305 305 295 294 303 305 311 316 322 323 317 321 324 316 310
60 304 306 10 68 77 78 50 49 63 47 16 12 7 10 12 3 336 325 327 329 327 324 309 315 328 331 325 316 311 313 326 330 327 328 331 333 329 325 326 333 332 336
333 335 329 340 75 115 127 111 62 94 114 82 41 1 359 1 323 320 320 315 309 309 311 308 321 331 336 338 344 349 346 349 341 339 342 340 341 339 338 341 353 352 345
341 343 333 2 32 42 88 132 153 146 178 239 278 297 300 306 307 309 315 318 307 302 293 311 331 338 340 342 350 353 345 348 344 340 347 348 348 343 342 344 351 349 352
293 191 311 360 36 31 39 28 104 153 171 188 220 250 269 283 291 297 309 319 315 334 343 344 343 346 346 345 353 355 350 351 352 348 356 353 348 345 345 341 343 353 346
347 41 28 7 10 36 41 27 34 48 60 85 150 206 249 270 274 279 293 305 338 1 1 352 346 352 354 352 355 355 353 356 356 352 353 347 341 341 341 339 341 352 341
110 30 322 313 12 60 45 34 44 47 53 51 46 37 356 310 320 339 350 354 2 8 5 351 348 4 3 357 357 1 4 5 1 354 345 339 337 340 342 345 349 352 356
179 162 211 256 35 61 54 40 46 42 44 48 52 48 341 327 354 6 12 13 13 9 8 350 353 9 9 0 2 9 12 6 359 351 342 335 336 340 339 342 348 359 4
288 159 164 105 81 60 39 42 54 53 41 32 20 109 276 316 7 13 24 20 16 10 9 359 6 15 13 6 6 12 8 1 352 344 336 332 332 337 341 345 349 356 8
257 161 124 106 105 117 129 72 63 53 46 29 19 30 38 14 14 28 33 25 19 12 11 6 16 20 17 12 7 19 11 352 335 325 326 326 327 331 339 344 352 1 9
253 129 121 117 111 112 96 84 72 50 37 34 22 22 34 35 35 42 34 20 23 16 18 14 32 29 22 21 9 12 9 343 326 319 320 315 321 336 341 342 348 0 1
244 106 111 113 111 107 98 92 77 44 35 42 33 23 28 41 46 48 38 13 22 28 21 22 40 37 19 20 15 3 346 334 330 327 318 313 325 342 344 346 350 356 5
114 106 112 114 109 109 112 111 107 75 50 48 45 41 32 44 51 43 37 13 11 33 27 21 50 52 26 14 6 358 347 341 337 333 322 316 336 356 350 349 352 357 6